TimeEST,TemperatureF,Dew PointF,Humidity,Sea Level PressureIn,VisibilityMPH,Wind Direction,Wind SpeedMPH,Gust SpeedMPH,PrecipitationIn,Events,Conditions,WindDirDegrees,DateUTC
12:15 AM,32.0,28.4,87,30.00,5.0,SE,6.9,19.6,N/A,,Overcast,140,2013-02-22 05:15:00
12:35 AM,32.0,30.2,93,30.03,10.0,SE,4.6,-,N/A,,Overcast,140,2013-02-22 05:35:00
12:55 AM,32.0,30.2,93,30.03,5.0,ESE,4.6,-,N/A,,Overcast,120,2013-02-22 05:55:00
1:15 AM,32.0,30.2,93,30.03,5.0,SE,6.9,-,N/A,,Overcast,130,2013-02-22 06:15:00
1:35 AM,32.0,32.0,100,30.03,3.0,ESE,5.8,-,N/A,,Overcast,120,2013-02-22 06:35:00
1:55 AM,32.0,32.0,100,30.01,4.0,ESE,4.6,-,N/A,Rain,Light Rain,110,2013-02-22 06:55:00
2:15 AM,32.0,32.0,100,29.99,4.0,ESE,5.8,-,N/A,,Overcast,110,2013-02-22 07:15:00
2:35 AM,32.0,32.0,100,29.98,7.0,East,4.6,-,N/A,,Overcast,100,2013-02-22 07:35:00
2:55 AM,32.0,32.0,100,29.97,10.0,ESE,4.6,-,N/A,,Overcast,110,2013-02-22 07:55:00
3:15 AM,32.0,32.0,100,29.96,10.0,East,4.6,-,N/A,,Overcast,100,2013-02-22 08:15:00
3:35 AM,32.0,32.0,100,29.95,4.0,ESE,4.6,-,N/A,,Overcast,120,2013-02-22 08:35:00
3:55 AM,32.0,32.0,100,29.93,5.0,SE,4.6,-,N/A,Snow,Light Snow,130,2013-02-22 08:55:00
4:15 AM,32.0,32.0,100,29.91,5.0,SE,5.8,-,N/A,,Overcast,130,2013-02-22 09:15:00
4:35 AM,32.0,32.0,100,29.91,10.0,SE,3.5,-,N/A,,Overcast,140,2013-02-22 09:35:00
4:55 AM,32.0,32.0,100,29.92,7.0,SE,3.5,-,N/A,,Overcast,130,2013-02-22 09:55:00
5:15 AM,32.0,32.0,100,29.91,7.0,SE,3.5,-,N/A,,Overcast,130,2013-02-22 10:15:00
5:35 AM,32.0,32.0,100,29.92,7.0,SSE,3.5,-,N/A,,Overcast,150,2013-02-22 10:35:00
5:55 AM,33.8,32.0,93,29.92,7.0,SE,3.5,-,N/A,,Drizzle,130,2013-02-22 10:55:00
6:15 AM,33.8,32.0,93,29.92,10.0,SSE,3.5,-,N/A,,Overcast,150,2013-02-22 11:15:00
6:35 AM,33.8,33.8,100,29.92,7.0,SSE,3.5,-,N/A,,Overcast,150,2013-02-22 11:35:00
6:55 AM,33.8,33.8,100,29.93,10.0,SSE,3.5,-,N/A,,Overcast,150,2013-02-22 11:55:00
7:15 AM,33.8,33.8,100,29.93,10.0,SSE,4.6,-,N/A,,Overcast,150,2013-02-22 12:15:00
7:35 AM,33.8,33.8,100,29.93,10.0,South,3.5,-,N/A,,Overcast,170,2013-02-22 12:35:00
7:55 AM,33.8,33.8,100,29.94,10.0,South,5.8,-,N/A,,Overcast,170,2013-02-22 12:55:00
8:35 AM,37.4,37.4,100,29.94,10.0,SSW,6.9,-,N/A,,Overcast,200,2013-02-22 13:35:00
8:55 AM,39.2,37.4,93,29.95,10.0,SW,5.8,-,N/A,,Overcast,220,2013-02-22 13:55:00
9:15 AM,41.0,41.0,100,29.95,10.0,SW,6.9,-,N/A,,Overcast,220,2013-02-22 14:15:00
9:35 AM,42.8,41.0,93,29.95,10.0,SW,8.1,-,N/A,,Overcast,230,2013-02-22 14:35:00
9:55 AM,44.6,42.8,93,29.95,10.0,SW,8.1,-,N/A,,Overcast,230,2013-02-22 14:55:00
10:15 AM,44.6,42.8,93,29.96,10.0,SW,8.1,-,N/A,,Overcast,230,2013-02-22 15:15:00
10:35 AM,44.6,44.6,100,29.95,10.0,SW,8.1,-,N/A,,Overcast,230,2013-02-22 15:35:00
10:55 AM,46.4,44.6,93,29.96,10.0,WSW,10.4,-,N/A,,Overcast,240,2013-02-22 15:55:00
11:15 AM,50.0,46.4,87,29.96,10.0,SW,12.7,18.4,N/A,,Overcast,230,2013-02-22 16:15:00
11:35 AM,51.8,46.4,82,29.96,10.0,WSW,16.1,23.0,N/A,,Overcast,240,2013-02-22 16:35:00
11:55 AM,51.8,46.4,82,29.96,10.0,WSW,12.7,21.9,N/A,,Mostly Cloudy,240,2013-02-22 16:55:00
12:15 PM,53.6,46.4,77,29.96,10.0,WSW,12.7,21.9,N/A,,Overcast,240,2013-02-22 17:15:00
12:35 PM,55.4,44.6,67,29.95,10.0,WSW,17.3,27.6,N/A,,Mostly Cloudy,250,2013-02-22 17:35:00
12:55 PM,55.4,44.6,67,29.95,10.0,WSW,23.0,33.4,N/A,,Mostly Cloudy,250,2013-02-22 17:55:00
1:15 PM,55.4,44.6,67,29.95,10.0,WSW,25.3,32.2,N/A,,Overcast,240,2013-02-22 18:15:00
1:35 PM,55.4,44.6,67,29.94,10.0,WSW,23.0,34.5,N/A,,Mostly Cloudy,250,2013-02-22 18:35:00
1:55 PM,55.4,44.6,67,29.94,10.0,WSW,18.4,28.8,N/A,,Mostly Cloudy,240,2013-02-22 18:55:00
2:15 PM,57.2,44.6,63,29.93,10.0,WSW,24.2,34.5,N/A,,Mostly Cloudy,250,2013-02-22 19:15:00
2:35 PM,59.0,44.6,59,29.93,10.0,WSW,21.9,28.8,N/A,,Scattered Clouds,240,2013-02-22 19:35:00
2:55 PM,55.4,44.6,67,29.94,10.0,SW,17.3,27.6,N/A,,Mostly Cloudy,230,2013-02-22 19:55:00
3:15 PM,57.2,42.8,59,29.94,10.0,WSW,16.1,26.5,N/A,,Mostly Cloudy,250,2013-02-22 20:15:00
3:35 PM,57.2,42.8,59,29.93,10.0,WSW,19.6,26.5,N/A,,Mostly Cloudy,240,2013-02-22 20:35:00
3:55 PM,59.0,42.8,55,29.93,10.0,West,18.4,25.3,N/A,,Scattered Clouds,260,2013-02-22 20:55:00
4:15 PM,57.2,42.8,59,29.93,10.0,WSW,13.8,21.9,N/A,,Mostly Cloudy,240,2013-02-22 21:15:00
4:35 PM,59.0,42.8,55,29.93,10.0,SW,12.7,19.6,N/A,,Mostly Cloudy,230,2013-02-22 21:35:00
4:55 PM,59.0,42.8,55,29.93,10.0,WSW,10.4,23.0,N/A,,Scattered Clouds,240,2013-02-22 21:55:00
5:15 PM,57.2,42.8,59,29.92,10.0,WSW,16.1,19.6,N/A,,Clear,250,2013-02-22 22:15:00
5:35 PM,55.4,41.0,58,29.93,10.0,WSW,12.7,19.6,N/A,,Clear,240,2013-02-22 22:35:00
5:55 PM,55.4,42.8,63,29.93,10.0,WSW,8.1,-,N/A,,Clear,240,2013-02-22 22:55:00
6:15 PM,53.6,42.8,67,29.93,10.0,WSW,8.1,-,N/A,,Clear,250,2013-02-22 23:15:00
6:35 PM,53.6,42.8,67,29.95,10.0,WSW,5.8,-,N/A,,Scattered Clouds,250,2013-02-22 23:35:00
6:55 PM,51.8,42.8,71,29.95,10.0,NNW,4.6,-,N/A,,Mostly Cloudy,340,2013-02-22 23:55:00
7:15 PM,51.8,42.8,71,29.96,10.0,NNW,5.8,-,N/A,,Scattered Clouds,340,2013-02-23 00:15:00
7:35 PM,50.0,42.8,76,29.97,10.0,NW,5.8,-,N/A,,Scattered Clouds,320,2013-02-23 00:35:00
7:55 PM,48.2,42.8,82,29.98,10.0,NNW,4.6,-,N/A,,Scattered Clouds,340,2013-02-23 00:55:00
8:15 PM,46.4,41.0,81,29.98,10.0,North,6.9,-,N/A,,Scattered Clouds,10,2013-02-23 01:15:00
8:35 PM,44.6,41.0,87,29.99,10.0,North,4.6,-,N/A,,Mostly Cloudy,10,2013-02-23 01:35:00
8:55 PM,44.6,41.0,87,29.99,10.0,North,4.6,-,N/A,,Overcast,10,2013-02-23 01:55:00
9:15 PM,44.6,41.0,87,29.99,10.0,Calm,Calm,-,N/A,,Overcast,0,2013-02-23 02:15:00
9:35 PM,44.6,41.0,87,30.00,10.0,Calm,Calm,-,N/A,,Overcast,0,2013-02-23 02:35:00
9:55 PM,44.6,41.0,87,30.01,10.0,Calm,Calm,-,N/A,,Overcast,0,2013-02-23 02:55:00
10:15 PM,44.6,41.0,87,30.01,10.0,NNE,3.5,-,N/A,,Overcast,30,2013-02-23 03:15:00
10:35 PM,42.8,41.0,93,30.00,10.0,NE,3.5,-,N/A,,Overcast,50,2013-02-23 03:35:00
10:55 PM,42.8,41.0,93,30.00,10.0,Calm,Calm,-,N/A,,Overcast,0,2013-02-23 03:55:00
11:15 PM,42.8,39.2,87,30.00,10.0,Calm,Calm,-,N/A,,Overcast,0,2013-02-23 04:15:00
11:35 PM,42.8,39.2,87,29.99,10.0,Calm,Calm,-,N/A,,Overcast,0,2013-02-23 04:35:00
11:55 PM,42.8,39.2,87,29.99,10.0,Calm,Calm,-,N/A,,Overcast,0,2013-02-23 04:55:00